Location: Albany
(35.0170°S, 117.8920°E)
Time: 17:36:34
(UTC+08:00)

Explorer 11/Cluster Stage 4 - Pass Details

Date: 31 January 2021
Orbit: 467 x 1257 km, 28.8° (Epoch: 02 March)

Event Time Altitude Azimuth Distance (km) Brightness Sun altitude
Rises 09:14:26 0° 273° (W) 3,856 9.7 44.9°
Reaches altitude 10° 09:17:36 10° 279° (W) 2,773 9.1 45.5°
Maximum altitude 09:23:41 38° 345° (NNW) 1,280 8.1 46.7°
Drops below altitude 10° 09:28:38 10° 52° (NE) 2,240 9.8 47.7°
Sets 09:30:57 0° 60° (ENE) 3,039 10.2 48.2°
